[[{"header":{"parameterUnit":"m.s-1","parameterCategory":2,"la1":30.2991,"la2":30.254,"lo1":-89.0895,"lo2":-89.0444,"dy":0.0017,"dx":0.0017,"nx":28,"ny":28,"refTime":"2024-05-14T03:00:00:Z","depth":"0","parameterNumber":2,"parameterNumberName":"U-component_of_CURRENTS"},"data":[0,0,0,0,0,0,0,0,0,0,0,0,0,0,0,0,0,0,0,0,0,0,0,0,0,0,0,0,0,0,0,0,0,0,0,0,0,0,0,0,0,0,0,0,0,0,0,0,0,0,0,0,0,0,0,0,0,0,0.2327,0.2328,0,0.2318,0.2318,0.2317,0.2309,0.231,0.231,0.231,0.2291,0.229,0.2289,0,0,0,0,0,0,0,0,0,0,0,0,0,0.2321,0.2321,0.2327,0.2328,0.2328,0.2318,0.2318,0.2317,0.2309,0.231,0.231,0.231,0.2291,0.229,0.2289,0,0,0,0,0,0,0,0,0,0,0,0,0,0.2317,0.2321,0.2327,0.2324,0.2324,0.2318,0.2318,0.2317,0.2309,0.231,0.231,0.231,0.2291,0.229,0.2289,0.2279,0,0,0.2286,0.2286,0,0,0,0,0,0,0,0,0.2317,0.2317,0.2325,0.2325,0.2325,0.2317,0.2309,0.2305,0.2309,0.2312,0.231,0.231,0.23,0.2298,0.2293,0.2278,0.2277,0.2286,0.2285,0.2285,0.2285,0,0,0,0,0,0,0,0.2317,0.2317,0.2321,0.2325,0.2325,0.2318,0.2317,0.2307,0.2303,0.2312,0.2312,0.2315,0.23,0.2294,0.2292,0.2277,0.2286,0.2285,0.2285,0.2284,0.2304,0.2305,0,0,0,0,0,0,0.2324,0.2317,0.2321,0.2321,0.2324,0.2318,0.2317,0.2317,0.2303,0.2302,0.2315,0.2315,0.2295,0.2293,0.2291,0.2312,0.2285,0.2284,0.2284,0.2303,0.2304,0.2306,0,0,0,0,0,0,0.2324,0.2325,0.2322,0.2321,0.2321,0.2318,0.2318,0.2317,0.2316,0.2306,0.2304,0.2316,0.2295,0.2293,0.2292,0.231,0.2284,0.2283,0.2302,0.2303,0.2305,0.2333,0,0,0,0,0,0,0.2324,0.2324,0.2325,0.2322,0.2321,0.2324,0.2318,0.2317,0.2319,0.2319,0.2306,0.2305,0.2295,0.2294,0.2291,0.2309,0.2282,0.23,0.2302,0.2304,0.233,0.2335,0.2339,0,0,0,0,0,0.2324,0.2318,0.2325,0.2325,0.2322,0.2324,0.2323,0.232,0.2319,0.2319,0.2315,0.2305,0.2306,0.2293,0.229,0.2308,0.2299,0.2302,0.2304,0.2328,0.2334,0.2339,0,0,0,0,0,0,0.2305,0.2317,0.2324,0.232,0.2328,0.2324,0.2322,0.2323,0.2319,0.2319,0.2308,0.2306,0.2319,0.2309,0.2295,0.2323,0.2305,0.2307,0.2325,0.233,0.2334,0.2346,0.2281,0,0,0,0,0,0.2306,0.231,0.2321,0.2318,0.2324,0.2326,0.2326,0.2327,0.2325,0.2323,0.2316,0.2317,0.2326,0.2323,0.2326,0.2328,0.2339,0.2343,0.2347,0.2351,0.2361,0.2406,0.2415,0.2314,0.2314,0.2314,0,0,0.2294,0.2305,0.2305,0.2316,0.232,0.2329,0.2325,0.2329,0.2338,0.2322,0.2325,0.233,0.2332,0.2344,0.2349,0.2336,0.2382,0.2354,0.2357,0.2365,0.2409,0.2419,0.2428,0.2315,0.2315,0.2315,0,0,0.2281,0.229,0.2293,0.2305,0.2321,0.2328,0.2334,0.2338,0.2342,0.2347,0.235,0.2367,0.2361,0.2375,0.238,0.241,0.2409,0.2412,0.2436,0.2479,0.2488,0.2496,0.2507,0.2516,0.2408,0.2409,0.2409,0,0.2267,0.2276,0.2292,0.2304,0.2315,0.2332,0.2341,0.2349,0.2351,0.2366,0.2354,0.2388,0.2381,0.2419,0.2428,0.2421,0.2436,0.2412,0.2485,0.2493,0.2501,0.2511,0.252,0.241,0.241,0.241,0.241,0,0.2261,0.2271,0.2274,0.2302,0.2317,0.2325,0.235,0.2365,0.2375,0.239,0.2428,0.2428,0.2453,0.2456,0.2445,0.2501,0.249,0.249,0.247,0.2513,0.252,0.253,0.2413,0.2412,0.2411,0.2411,0,0,0.2213,0.2261,0.2261,0.2278,0.2318,0.2326,0.236,0.2396,0.2424,0.244,0.2478,0.2499,0.2513,0.2521,0.2522,0.2551,0.2602,0.254,0.2542,0.2548,0.2683,0.2665,0.2673,0.2618,0.2621,0.2622,0.2661,0,0.2201,0.2224,0.2255,0.2277,0.2292,0.2334,0.2364,0.2404,0.2439,0.2479,0.2513,0.2546,0.2535,0.2549,0.2582,0.2607,0.2631,0.2591,0.2644,0.2645,0.2622,0.2685,0.2682,0.2716,0.267,0.2671,0.2672,0,0.2178,0.2203,0.2225,0.2276,0.2287,0.2307,0.2373,0.2403,0.2479,0.2507,0.2565,0.2595,0.2651,0.2628,0.2702,0.2679,0.2685,0.2694,0.2696,0.268,0.2646,0.267,0.2734,0.2708,0.2686,0.2685,0.2684,0,0.2132,0.2175,0.2196,0.2211,0.2274,0.2298,0.2336,0.2412,0.245,0.2534,0.2578,0.2649,0.2686,0.2728,0.2759,0.2736,0.2833,0.2802,0.2789,0.2786,0.2794,0.2789,0.284,0.2854,0.2854,0.2853,0.2853,0,0.2102,0.2112,0.2176,0.2184,0.2211,0.2271,0.2316,0.2365,0.2452,0.2511,0.259,0.2653,0.2717,0.2782,0.2792,0.2833,0.2866,0.2812,0.281,0.28,0.2796,0.2781,0.2742,0.2855,0.2855,0.2854,0.2854,0,0.2038,0.2084,0.2102,0.2167,0.2188,0.2205,0.2291,0.233,0.2424,0.2508,0.254,0.2667,0.2763,0.2823,0.289,0.2873,0.2848,0.2907,0.2876,0.2871,0.2808,0.2771,0.2682,0.2571,0.2893,0.2893,0.2893,0,0.2002,0.2011,0.2069,0.2085,0.2112,0.2157,0.2193,0.2292,0.2351,0.2517,0.2558,0.269,0.2786,0.2892,0.2917,0.2954,0.2858,0.2925,0.2878,0.2825,0.2783,0.2643,0.2544,0.289,0.289,0.289,0.289,0,0.1933,0.1959,0.1982,0.2016,0.2049,0.2087,0.2158,0.2194,0.2329,0.2425,0.2561,0.2659,0.2815,0.2893,0.2952,0.2949,0.2819,0.2922,0.2899,0.2818,0.264,0.2527,0.2816,0.2891,0.2891,0.2891,0.2891,0.2891,0.1874,0.1872,0.1913,0.1935,0.1974,0.2004,0.2011,0.2115,0.2198,0.2331,0.2484,0.2632,0.2858,0.2966,0.2921,0.2905,0.28,0.2866,0.2832,0.2699,0.2572,0.2842,0.2894,0.2894,0.2894,0.2894,0.2894,0,0.179,0.181,0.1832,0.1856,0.1859,0.1915,0.1975,0.1983,0.2049,0.2256,0.2384,0.2665,0.2802,0.2916,0.3021,0.29,0.2689,0.2798,0.2635,0.2541,0.285,0.2834,0.2839,0.2839,0.2839,0.2839,0.2839,0.2839,0.1751,0.1739,0.1753,0.1732,0.1752,0.173,0.1739,0.1782,0.1911,0.2095,0.2292,0.2473,0.2841,0.3086,0.3072,0.2944,0.2654,0.2553,0.243,0.273,0.2734,0.2738,0.2717,0.2697,0.2697,0.2065,0.2061,0.2057]},{"header":{"parameterUnit":"m.s-1","parameterCategory":2,"la1":30.2991,"la2":30.254,"lo1":-89.0895,"lo2":-89.0444,"dy":0.0017,"dx":0.0017,"nx":28,"ny":28,"refTime":"2024-05-14T03:00:00:Z","depth":"0","parameterNumber":3,"parameterNumberName":"V-component_of_CURRENTS"},"data":[0,0,0,0,0,0,0,0,0,0,0,0,0,0,0,0,0,0,0,0,0,0,0,0,0,0,0,0,0,0,0,0,0,0,0,0,0,0,0,0,0,0,0,0,0,0,0,0,0,0,0,0,0,0,0,0,0,0,-0.0123,-0.0123,0,-0.0155,-0.0155,-0.0156,-0.0183,-0.0183,-0.0183,-0.0183,-0.0217,-0.0218,-0.0219,0,0,0,0,0,0,0,0,0,0,0,0,0,-0.0106,-0.0106,-0.0122,-0.0123,-0.0123,-0.0155,-0.0155,-0.0156,-0.0183,-0.0183,-0.0183,-0.0183,-0.0217,-0.0218,-0.0219,0,0,0,0,0,0,0,0,0,0,0,0,0,-0.0124,-0.0106,-0.0122,-0.014,-0.0142,-0.0155,-0.0155,-0.0156,-0.0183,-0.0183,-0.0183,-0.0184,-0.0217,-0.0218,-0.0219,-0.0218,0,0,-0.0222,-0.0222,0,0,0,0,0,0,0,0,-0.0123,-0.0124,-0.0137,-0.0139,-0.0141,-0.0165,-0.0162,-0.0177,-0.0182,-0.0168,-0.0183,-0.0184,-0.0199,-0.0202,-0.0208,-0.022,-0.0221,-0.0222,-0.0223,-0.0223,-0.0223,0,0,0,0,0,0,0,-0.0121,-0.0123,-0.0136,-0.0137,-0.014,-0.0154,-0.0157,-0.0165,-0.0181,-0.0169,-0.0171,-0.0174,-0.0201,-0.0207,-0.0209,-0.0222,-0.0222,-0.0223,-0.0224,-0.0224,-0.0231,-0.0231,0,0,0,0,0,0,-0.0115,-0.0122,-0.0135,-0.0137,-0.0132,-0.0154,-0.0157,-0.0157,-0.0181,-0.0185,-0.0173,-0.0175,-0.0205,-0.0208,-0.021,-0.0203,-0.0223,-0.0224,-0.0225,-0.0232,-0.0231,-0.0231,0,0,0,0,0,0,-0.0114,-0.0115,-0.0134,-0.013,-0.0133,-0.0153,-0.0154,-0.0158,-0.0163,-0.0185,-0.0189,-0.0174,-0.0205,-0.0209,-0.0214,-0.0205,-0.0225,-0.0226,-0.0232,-0.0231,-0.0231,-0.0194,0,0,0,0,0,0,-0.0114,-0.0115,-0.0112,-0.0129,-0.0133,-0.0136,-0.0153,-0.0158,-0.0164,-0.0166,-0.0186,-0.019,-0.0206,-0.0213,-0.0215,-0.0207,-0.0226,-0.0233,-0.0232,-0.0231,-0.0196,-0.0193,-0.019,0,0,0,0,0,-0.0113,-0.0104,-0.0112,-0.0114,-0.0129,-0.0135,-0.0138,-0.0155,-0.0163,-0.0161,-0.0176,-0.0189,-0.021,-0.0213,-0.0216,-0.0208,-0.0233,-0.0232,-0.0231,-0.0198,-0.0193,-0.019,0,0,0,0,0,0,-0.0092,-0.0106,-0.0116,-0.0111,-0.0121,-0.014,-0.0139,-0.015,-0.0161,-0.0163,-0.0185,-0.0189,-0.0192,-0.0203,-0.0207,-0.0208,-0.0223,-0.0223,-0.0196,-0.0193,-0.0189,-0.0187,-0.0227,0,0,0,0,0,-0.0087,-0.0086,-0.0102,-0.0098,-0.0101,-0.0119,-0.0124,-0.0135,-0.0147,-0.0152,-0.0167,-0.0181,-0.019,-0.0194,-0.0206,-0.0204,-0.0218,-0.0201,-0.0197,-0.0194,-0.0194,-0.0209,-0.0207,-0.0227,-0.0227,-0.0227,0,0,-0.0078,-0.0086,-0.0086,-0.0094,-0.0104,-0.01,-0.0123,-0.0125,-0.0123,-0.0153,-0.0154,-0.0171,-0.0188,-0.0189,-0.0191,-0.0197,-0.0193,-0.0193,-0.0191,-0.0192,-0.0208,-0.0206,-0.0204,-0.0227,-0.0227,-0.0227,0,0,-0.0056,-0.0066,-0.0057,-0.0064,-0.0074,-0.0083,-0.0081,-0.0098,-0.0106,-0.011,-0.0131,-0.0144,-0.0155,-0.0169,-0.0176,-0.0161,-0.0178,-0.016,-0.0139,-0.0152,-0.0151,-0.015,-0.0155,-0.0155,-0.0155,-0.0155,-0.0155,0,-0.0044,-0.0037,-0.0055,-0.0048,-0.0048,-0.0072,-0.0059,-0.007,-0.0086,-0.009,-0.0104,-0.0128,-0.0147,-0.0148,-0.0146,-0.0154,-0.016,-0.0152,-0.0148,-0.0147,-0.0147,-0.0153,-0.0153,-0.0153,-0.0154,-0.0154,-0.0154,0,-0.0016,-0.0012,-0.0006,-0.0005,-0.0006,0.0,-0.0015,-0.002,-0.0034,-0.0046,-0.0057,-0.0088,-0.01,-0.0109,-0.0124,-0.0126,-0.013,-0.0144,-0.0158,-0.0142,-0.0149,-0.015,-0.0151,-0.0151,-0.0152,-0.0152,0,0,0.002,0.0015,0.0017,0.0026,0.0017,0.0024,0.0025,0.0023,0.0029,0.0,0.0006,-0.0027,-0.0048,-0.0058,-0.0081,-0.0098,-0.0103,-0.0116,-0.0117,-0.012,-0.0123,-0.0132,-0.0134,-0.0114,-0.0114,-0.0114,-0.0126,0,0.005,0.0073,0.0061,0.0088,0.0101,0.0079,0.0086,0.0079,0.0064,0.0062,0.0022,0.0019,-0.0025,-0.0027,-0.0053,-0.0085,-0.0105,-0.0098,-0.0139,-0.014,-0.0149,-0.0135,-0.011,-0.0119,-0.0127,-0.0127,-0.0127,0,0.0084,0.0095,0.0123,0.0136,0.0141,0.0151,0.016,0.0161,0.0143,0.0135,0.0112,0.0084,0.0059,0.0017,-0.0038,-0.0029,-0.0075,-0.0109,-0.0111,-0.0134,-0.015,-0.0138,-0.0121,-0.0282,-0.0129,-0.0129,-0.0129,0,0.0126,0.0141,0.0167,0.017,0.0179,0.0187,0.0191,0.0181,0.0196,0.018,0.0197,0.0148,0.0143,0.0074,0.0005,-0.0015,-0.0053,-0.009,-0.0145,-0.0145,-0.014,-0.0141,-0.0285,-0.0139,-0.0139,-0.0139,-0.0139,0,0.0163,0.0185,0.0187,0.0202,0.0238,0.0227,0.0259,0.0253,0.026,0.0299,0.024,0.0264,0.0157,0.0123,0.0037,-0.004,-0.0026,-0.0138,-0.015,-0.0126,-0.0125,-0.0279,-0.0388,-0.014,-0.014,-0.014,-0.0139,0,0.02,0.02,0.0234,0.0249,0.0258,0.0281,0.0311,0.0338,0.0337,0.0386,0.0392,0.0361,0.0323,0.0221,0.0122,0.0017,-0.016,-0.0101,-0.0061,-0.0069,-0.0297,-0.0404,-0.0593,-0.065,-0.0179,-0.0179,-0.018,0,0.022,0.0239,0.0271,0.0298,0.0305,0.0337,0.0368,0.0376,0.0415,0.0457,0.0496,0.0471,0.0478,0.033,0.0164,0.0021,-0.015,-0.0096,-0.0149,-0.0308,-0.0435,-0.0537,-0.0578,-0.0123,-0.0123,-0.0122,-0.0122,0,0.0259,0.0267,0.0294,0.0347,0.0386,0.0434,0.0478,0.0525,0.0555,0.0611,0.0682,0.069,0.0563,0.0432,0.0216,0.0094,-0.0231,-0.0099,-0.0273,-0.0416,-0.0526,-0.0584,-0.0118,-0.0121,-0.0121,-0.0121,-0.0121,-0.0121,0.0289,0.0314,0.0349,0.04,0.0453,0.0525,0.0573,0.0645,0.0729,0.0838,0.0833,0.0906,0.0673,0.0391,0.0191,-0.0185,-0.0229,-0.033,-0.0446,-0.0534,-0.0603,-0.0133,-0.0148,-0.0148,-0.0149,-0.0149,-0.0149,0,0.0323,0.0353,0.0403,0.0466,0.0531,0.0549,0.0647,0.0711,0.0832,0.0974,0.1052,0.1032,0.0702,0.0372,-0.0135,-0.0463,-0.0587,-0.0664,-0.0806,-0.0829,-0.0406,-0.0416,-0.0477,-0.0477,-0.0477,-0.0477,-0.0476,-0.0476,0.0345,0.0393,0.0415,0.0517,0.0569,0.0658,0.0718,0.083,0.0948,0.1142,0.1258,0.1319,0.1108,0.0043,-0.0691,-0.0867,-0.1103,-0.1178,-0.1306,-0.1028,-0.1006,-0.0985,-0.102,-0.1207,-0.1208,-0.1659,-0.1664,-0.1667]}],[{"header":{"parameterUnit":"m.s-1","parameterCategory":2,"la1":30.2991,"la2":30.254,"lo1":-89.0895,"lo2":-89.0444,"dy":0.0017,"dx":0.0017,"nx":28,"ny":28,"refTime":"2024-05-14T03:00:00:Z","depth":"2","parameterNumber":2,"parameterNumberName":"U-component_of_CURRENTS"},"data":[0,0,0,0,0,0,0,0,0,0,0,0,0,0,0,0,0,0,0,0,0,0,0,0,0,0,0,0,0,0,0,0,0,0,0,0,0,0,0,0,0,0,0,0,0,0,0,0,0,0,0,0,0,0,0,0,0,0,0.2219,0.2219,0,0.2229,0.2229,0.2229,0.2229,0.2229,0.2229,0.2229,0.2238,0.2238,0.2238,0,0,0,0,0,0,0,0,0,0,0,0,0,0.2193,0.2194,0.2219,0.2219,0.222,0.2229,0.2229,0.2229,0.2229,0.2229,0.2229,0.2229,0.2238,0.2238,0.2238,0,0,0,0,0,0,0,0,0,0,0,0,0,0.2202,0.2194,0.2219,0.2222,0.2223,0.2229,0.2229,0.2229,0.2229,0.2229,0.2229,0.2229,0.2238,0.2238,0.2238,0.2238,0,0,0.2239,0.2239,0,0,0,0,0,0,0,0,0.2202,0.2203,0.2222,0.2222,0.2223,0.223,0.2223,0.2233,0.2229,0.2225,0.2229,0.223,0.2236,0.2237,0.2235,0.2238,0.2239,0.2239,0.2239,0.2239,0.2239,0,0,0,0,0,0,0,0.2201,0.2202,0.2221,0.2222,0.2223,0.2221,0.2222,0.2225,0.2228,0.2225,0.2226,0.223,0.2236,0.2235,0.2236,0.2239,0.2239,0.2239,0.224,0.224,0.2286,0.2287,0,0,0,0,0,0,0.2204,0.2202,0.2221,0.2221,0.2215,0.2222,0.2223,0.2226,0.2228,0.2229,0.223,0.223,0.2235,0.2235,0.2236,0.2271,0.2239,0.224,0.224,0.2285,0.2286,0.2287,0,0,0,0,0,0,0.2204,0.2206,0.222,0.2214,0.2216,0.2222,0.2225,0.2226,0.2234,0.2232,0.2233,0.2238,0.2235,0.2236,0.2248,0.227,0.224,0.224,0.2283,0.2285,0.2287,0.2319,0,0,0,0,0,0,0.2203,0.2205,0.2211,0.2214,0.2216,0.2231,0.2226,0.2226,0.2237,0.2237,0.224,0.224,0.2235,0.2248,0.2249,0.227,0.224,0.2282,0.2284,0.2286,0.2316,0.2321,0.2326,0,0,0,0,0,0.2202,0.2205,0.2211,0.2213,0.2222,0.2232,0.2233,0.2236,0.2237,0.2243,0.2247,0.224,0.2262,0.2249,0.2249,0.2271,0.2281,0.2284,0.2286,0.2314,0.232,0.2325,0,0,0,0,0,0,0.2191,0.2206,0.2212,0.2218,0.223,0.2233,0.2239,0.2243,0.2249,0.2252,0.2248,0.2249,0.2272,0.2267,0.2253,0.2292,0.2273,0.2276,0.2295,0.23,0.2305,0.2316,0.224,0,0,0,0,0,0.2193,0.2203,0.2216,0.2222,0.223,0.2237,0.2243,0.2247,0.2253,0.2256,0.2258,0.2266,0.2281,0.2286,0.2295,0.2309,0.2318,0.2327,0.2331,0.2335,0.2346,0.2397,0.2408,0.2295,0.2295,0.2295,0,0,0.2188,0.2201,0.2204,0.2222,0.223,0.2243,0.2241,0.2253,0.2265,0.2256,0.2272,0.2282,0.229,0.2311,0.2321,0.2309,0.2366,0.2338,0.2341,0.235,0.2401,0.2412,0.2422,0.2297,0.2296,0.2296,0,0,0.2186,0.2199,0.2208,0.2221,0.2242,0.225,0.2258,0.2269,0.2278,0.2295,0.2299,0.2323,0.2332,0.2348,0.2357,0.2393,0.2392,0.2395,0.2424,0.2474,0.2484,0.2493,0.2491,0.25,0.2394,0.2394,0.2394,0,0.218,0.2194,0.2211,0.2225,0.2238,0.2256,0.2269,0.2282,0.2295,0.2314,0.2305,0.2355,0.2354,0.2399,0.2409,0.2404,0.2417,0.24,0.2481,0.249,0.2498,0.2495,0.2504,0.2396,0.2396,0.2396,0.2396,0,0.2183,0.2199,0.2207,0.2234,0.2251,0.2265,0.2289,0.231,0.2326,0.2343,0.2392,0.2402,0.2436,0.244,0.2431,0.2495,0.2477,0.2483,0.2466,0.2512,0.2505,0.2514,0.2399,0.2398,0.2398,0.2397,0,0,0.215,0.22,0.2201,0.2218,0.2258,0.2267,0.2305,0.2344,0.2375,0.2402,0.245,0.2479,0.2499,0.2511,0.2515,0.2551,0.2603,0.2541,0.2543,0.2538,0.2685,0.2644,0.2649,0.2631,0.2633,0.2635,0.2646,0,0.2147,0.2175,0.2204,0.2229,0.2245,0.2285,0.2317,0.2358,0.2398,0.2448,0.249,0.2536,0.2522,0.2547,0.2584,0.261,0.2634,0.2598,0.2643,0.2644,0.2602,0.2662,0.2488,0.2483,0.2654,0.2656,0.2657,0,0.2133,0.2158,0.2184,0.2235,0.2246,0.2268,0.2333,0.2367,0.245,0.2484,0.2552,0.2589,0.2653,0.2635,0.2707,0.2688,0.2689,0.2698,0.27,0.2661,0.2622,0.2471,0.2492,0.2672,0.267,0.2669,0.2668,0,0.2092,0.2138,0.2161,0.2176,0.2238,0.2264,0.2303,0.2379,0.2423,0.2521,0.2575,0.2651,0.2702,0.274,0.276,0.2745,0.2828,0.2808,0.2765,0.2759,0.2621,0.26,0.2859,0.2859,0.2859,0.2859,0.2859,0,0.2069,0.2082,0.2144,0.2154,0.2186,0.2242,0.2294,0.2347,0.2444,0.2506,0.2595,0.2659,0.2738,0.2794,0.2792,0.281,0.2856,0.2784,0.2778,0.2623,0.2604,0.2779,0.277,0.2859,0.2859,0.2859,0.2859,0,0.2012,0.2056,0.2078,0.2144,0.2166,0.2187,0.228,0.2324,0.2425,0.2516,0.2557,0.2686,0.2763,0.2814,0.2873,0.2849,0.2866,0.2851,0.2641,0.2611,0.2745,0.2737,0.2808,0.2807,0.2806,0.2806,0.2805,0,0.1981,0.1991,0.2052,0.2069,0.2098,0.2149,0.2189,0.2296,0.2353,0.252,0.2561,0.2685,0.2749,0.2825,0.282,0.2821,0.2854,0.2641,0.2591,0.2762,0.2749,0.2742,0.2736,0.2397,0.2393,0.239,0.2388,0,0.1922,0.1947,0.1972,0.2009,0.2047,0.2087,0.2159,0.2195,0.233,0.2415,0.2521,0.2592,0.2701,0.2655,0.2682,0.2646,0.2633,0.2578,0.2836,0.2448,0.2379,0.2365,0.2371,0.236,0.2362,0.2365,0.2366,0.2367,0.1872,0.1873,0.1913,0.1939,0.198,0.2006,0.2014,0.2098,0.2165,0.2263,0.2388,0.2439,0.2507,0.2474,0.2399,0.2344,0.2513,0.2402,0.2409,0.2421,0.2383,0.2318,0.2276,0.2279,0.2281,0.2282,0.2284,0,0.1798,0.1818,0.1841,0.1867,0.187,0.1927,0.1978,0.197,0.1998,0.2125,0.2195,0.2078,0.2087,0.2137,0.2038,0.204,0.1984,0.1938,0.1866,0.1898,0.1926,0.1859,0.1615,0.1612,0.161,0.1607,0,0,0.1763,0.1753,0.1766,0.1745,0.1767,0.1745,0.1749,0.1754,0.1818,0.1819,0.185,0.2023,0.2131,0.1862,0.1832,0.1719,0.178,0.1641,0.2193,0.2147,0.217,0.2228,0.2168,0,0,0,0,0]},{"header":{"parameterUnit":"m.s-1","parameterCategory":2,"la1":30.2991,"la2":30.254,"lo1":-89.0895,"lo2":-89.0444,"dy":0.0017,"dx":0.0017,"nx":28,"ny":28,"refTime":"2024-05-14T03:00:00:Z","depth":"2","parameterNumber":3,"parameterNumberName":"V-component_of_CURRENTS"},"data":[0,0,0,0,0,0,0,0,0,0,0,0,0,0,0,0,0,0,0,0,0,0,0,0,0,0,0,0,0,0,0,0,0,0,0,0,0,0,0,0,0,0,0,0,0,0,0,0,0,0,0,0,0,0,0,0,0,0,-0.0009,-0.0009,0,-0.0049,-0.0049,-0.005,-0.007,-0.007,-0.0069,-0.0069,-0.0109,-0.011,-0.0111,0,0,0,0,0,0,0,0,0,0,0,0,0,0.0016,0.0016,-0.0009,-0.0009,-0.001,-0.0049,-0.0049,-0.005,-0.007,-0.007,-0.0069,-0.0069,-0.0109,-0.011,-0.0111,0,0,0,0,0,0,0,0,0,0,0,0,0,-0.0007,0.0016,-0.0009,-0.0024,-0.0026,-0.0049,-0.0049,-0.005,-0.007,-0.007,-0.0069,-0.0069,-0.0108,-0.011,-0.0112,-0.0122,0,0,-0.0117,-0.0117,0,0,0,0,0,0,0,0,-0.0005,-0.0008,-0.0021,-0.0023,-0.0025,-0.0054,-0.0055,-0.0074,-0.007,-0.0053,-0.0069,-0.0069,-0.009,-0.0094,-0.0102,-0.0124,-0.0126,-0.0117,-0.0118,-0.0118,-0.0119,0,0,0,0,0,0,0,-0.0004,-0.0006,-0.0025,-0.0022,-0.0024,-0.0041,-0.0044,-0.0059,-0.0072,-0.0055,-0.0056,-0.006,-0.0092,-0.01,-0.0103,-0.0127,-0.0117,-0.0118,-0.0119,-0.012,-0.0144,-0.0144,0,0,0,0,0,0,0.0004,-0.0004,-0.0024,-0.0026,-0.0015,-0.0041,-0.0044,-0.0045,-0.0072,-0.0076,-0.006,-0.0061,-0.0097,-0.0101,-0.0104,-0.01,-0.0118,-0.012,-0.0121,-0.0144,-0.0144,-0.0144,0,0,0,0,0,0,0.0004,0.0002,-0.0022,-0.0016,-0.002,-0.0041,-0.0042,-0.0046,-0.0053,-0.0076,-0.008,-0.0064,-0.0097,-0.0102,-0.0114,-0.0102,-0.0121,-0.0122,-0.0145,-0.0144,-0.0144,-0.0104,0,0,0,0,0,0,0.0005,0.0003,0.0004,-0.0016,-0.002,-0.0032,-0.0042,-0.0046,-0.0056,-0.0057,-0.008,-0.0084,-0.0098,-0.0111,-0.0116,-0.0105,-0.0123,-0.0145,-0.0145,-0.0144,-0.0105,-0.0102,-0.0099,0,0,0,0,0,0.0006,0.0009,0.0004,0.0001,-0.0018,-0.0032,-0.0036,-0.0051,-0.0056,-0.0058,-0.0072,-0.0083,-0.011,-0.0113,-0.0118,-0.0107,-0.0146,-0.0145,-0.0144,-0.0107,-0.0102,-0.0099,0,0,0,0,0,0,0.002,0.0007,0.0001,-0.0001,-0.0014,-0.0035,-0.0039,-0.0049,-0.0063,-0.0063,-0.0083,-0.0088,-0.0094,-0.0108,-0.011,-0.0112,-0.0128,-0.0128,-0.0098,-0.0094,-0.0091,-0.0082,-0.0125,0,0,0,0,0,0.0023,0.0022,0.0006,0.0004,-0.0,-0.0019,-0.0027,-0.0037,-0.0051,-0.0057,-0.0073,-0.0087,-0.0095,-0.01,-0.0114,-0.0118,-0.0132,-0.0113,-0.011,-0.0107,-0.0103,-0.0115,-0.0113,-0.0141,-0.0141,-0.0141,0,0,0.0027,0.002,0.0019,0.0007,-0.0004,-0.0004,-0.0024,-0.0033,-0.003,-0.0059,-0.0062,-0.0079,-0.0095,-0.0097,-0.01,-0.0106,-0.0106,-0.0106,-0.0103,-0.0101,-0.0114,-0.0112,-0.0109,-0.0141,-0.0141,-0.0141,0,0,0.0039,0.003,0.0034,0.0026,0.0013,0.0005,0.0005,-0.0015,-0.002,-0.0029,-0.0044,-0.0054,-0.0073,-0.0078,-0.0082,-0.007,-0.0091,-0.0074,-0.0047,-0.0059,-0.0057,-0.0055,-0.0068,-0.0068,-0.0069,-0.0069,-0.0069,0,0.0046,0.005,0.0033,0.0036,0.0036,0.0013,0.0022,0.0012,-0.0008,-0.0007,-0.0024,-0.0043,-0.0061,-0.0052,-0.0049,-0.0062,-0.0074,-0.0059,-0.0054,-0.0053,-0.0051,-0.0066,-0.0066,-0.0067,-0.0067,-0.0067,-0.0067,0,0.0062,0.0064,0.0066,0.0068,0.0065,0.0067,0.0056,0.0051,0.004,0.0031,0.0027,-0.0,-0.0008,-0.0015,-0.003,-0.0024,-0.0037,-0.005,-0.0063,-0.0046,-0.0062,-0.0063,-0.0064,-0.0065,-0.0065,-0.0066,0,0,0.0083,0.008,0.0081,0.0091,0.0084,0.0088,0.0093,0.0096,0.0108,0.0081,0.0094,0.0069,0.0052,0.0045,0.0026,0.0013,0.0006,-0.0013,-0.0015,-0.0023,-0.0023,-0.0035,-0.0038,-0.0007,-0.0007,-0.0007,-0.0037,0,0.0104,0.0122,0.0114,0.0138,0.015,0.0136,0.0149,0.0148,0.0139,0.0143,0.0116,0.0117,0.0078,0.0076,0.0057,0.0025,0.0005,0.0015,-0.004,-0.0042,-0.0053,-0.0039,-0.0033,-0.006,-0.0038,-0.0038,-0.0039,0,0.0127,0.0139,0.0164,0.0184,0.0189,0.0199,0.0221,0.0225,0.0222,0.0217,0.0205,0.0182,0.0168,0.0126,0.0076,0.0084,0.0032,-0.0003,-0.0005,-0.0031,-0.0056,-0.0074,-0.0062,-0.004,-0.004,-0.004,-0.004,0,0.0162,0.0178,0.0203,0.0207,0.0222,0.0234,0.0243,0.0247,0.0268,0.0261,0.0278,0.0245,0.0239,0.0175,0.0104,0.0088,0.0043,0.0013,-0.005,-0.0052,-0.0064,-0.0067,-0.0035,-0.0034,-0.0034,-0.0034,-0.0034,0,0.0193,0.0214,0.022,0.0234,0.0275,0.0268,0.0307,0.0309,0.0326,0.0368,0.0318,0.0344,0.025,0.0214,0.0131,0.005,0.0064,-0.0042,-0.0058,-0.005,-0.0051,-0.005,-0.0052,-0.0035,-0.0035,-0.0035,-0.0035,0,0.0225,0.0227,0.026,0.028,0.0291,0.0317,0.0354,0.0386,0.0391,0.0443,0.0448,0.0425,0.038,0.0285,0.0187,0.0095,0.0011,-0.0028,-0.0012,-0.0027,-0.0088,-0.0087,-0.0106,-0.0106,-0.0107,-0.0107,-0.0108,0,0.0242,0.0261,0.0295,0.0322,0.0331,0.0366,0.0401,0.0418,0.0459,0.0503,0.0541,0.0509,0.0507,0.0358,0.02,0.0056,0.0026,-0.006,-0.0096,-0.008,-0.0094,-0.0092,-0.009,-0.0099,-0.0099,-0.0099,-0.01,0,0.0278,0.0286,0.0313,0.0367,0.0406,0.0456,0.0503,0.0551,0.0587,0.0636,0.0694,0.0693,0.0557,0.041,0.0198,0.0094,-0.0037,-0.0071,-0.0047,-0.0081,-0.0075,-0.0089,-0.0087,-0.0102,-0.0101,-0.0101,-0.0101,-0.0101,0.0306,0.033,0.0365,0.0416,0.0469,0.0539,0.0586,0.0654,0.0732,0.0817,0.0807,0.0817,0.0628,0.0377,0.0168,-0.0049,-0.003,-0.013,-0.0128,-0.0126,-0.0119,-0.0115,-0.0147,-0.0147,-0.0147,-0.0148,-0.0148,0,0.0338,0.0365,0.0415,0.0477,0.054,0.056,0.0656,0.071,0.0813,0.09,0.0946,0.0787,0.0609,0.0398,0.0074,-0.0131,-0.0148,-0.0203,-0.0188,-0.0184,-0.0181,-0.0176,-0.022,-0.0221,-0.0222,-0.0223,0,0,0.0357,0.0403,0.0423,0.052,0.0572,0.0656,0.0713,0.0803,0.088,0.0967,0.099,0.0984,0.071,0.0454,0.0171,-0.0028,-0.006,-0.0066,0.0017,0.0072,0.0077,-0.0111,-0.0096,0,0,0,0,0]}],[{"header":{"parameterUnit":"m.s-1","parameterCategory":2,"la1":30.2991,"la2":30.254,"lo1":-89.0895,"lo2":-89.0444,"dy":0.0017,"dx":0.0017,"nx":28,"ny":28,"refTime":"2024-05-14T03:00:00:Z","depth":"4","parameterNumber":2,"parameterNumberName":"U-component_of_CURRENTS"},"data":[0,0,0,0,0,0,0,0,0,0,0,0,0,0,0,0,0,0,0,0,0,0,0,0,0,0,0,0,0,0,0,0,0,0,0,0,0,0,0,0,0,0,0,0,0,0,0,0,0,0,0,0,0,0,0,0,0,0,0.1483,0.1484,0,0.1539,0.154,0.154,0.159,0.1591,0.1592,0.1592,0.168,0.1681,0.1683,0,0,0,0,0,0,0,0,0,0,0,0,0,0.1422,0.1423,0.1483,0.1484,0.1484,0.1539,0.154,0.154,0.159,0.1591,0.1592,0.1593,0.1679,0.1681,0.1683,0,0,0,0,0,0,0,0,0,0,0,0,0,0.1459,0.1423,0.1483,0.1517,0.152,0.1539,0.154,0.154,0.159,0.1591,0.1592,0.1593,0.1678,0.1681,0.1683,0.1678,0,0,0.1691,0.1692,0,0,0,0,0,0,0,0,0.1457,0.1461,0.1511,0.1514,0.1519,0.156,0.155,0.1588,0.159,0.1562,0.1592,0.1594,0.1642,0.1648,0.1654,0.1682,0.1686,0.1691,0.1693,0.1694,0.1694,0,0,0,0,0,0,0,0.1454,0.1459,0.1504,0.1512,0.1516,0.153,0.1537,0.1557,0.1596,0.1565,0.1569,0.1577,0.1645,0.1651,0.1657,0.1687,0.1691,0.1693,0.1695,0.1696,0.1805,0.1806,0,0,0,0,0,0,0.1448,0.1456,0.1502,0.1506,0.1491,0.1531,0.1538,0.1545,0.1595,0.1604,0.1576,0.1579,0.1647,0.1654,0.166,0.1736,0.1694,0.1696,0.1697,0.1804,0.1805,0.1807,0,0,0,0,0,0,0.1447,0.1452,0.15,0.1483,0.1491,0.1531,0.1538,0.1545,0.1585,0.1603,0.1612,0.1612,0.1648,0.1656,0.1705,0.1736,0.1697,0.1699,0.1802,0.1804,0.1806,0.1837,0,0,0,0,0,0,0.1445,0.1451,0.147,0.1483,0.1491,0.1532,0.1537,0.1546,0.1586,0.1592,0.1636,0.1644,0.1649,0.1701,0.1707,0.1739,0.1701,0.18,0.1803,0.1806,0.1834,0.1839,0.1844,0,0,0,0,0,0.1442,0.1459,0.1471,0.1477,0.1511,0.1533,0.1539,0.1569,0.1587,0.1609,0.1639,0.1644,0.1722,0.1704,0.1711,0.1745,0.1799,0.1802,0.1805,0.1831,0.1838,0.1844,0,0,0,0,0,0,0.1444,0.1466,0.1479,0.1503,0.1527,0.1542,0.157,0.1587,0.1627,0.1644,0.1659,0.1668,0.1724,0.173,0.1709,0.1785,0.1763,0.1768,0.178,0.1787,0.1792,0.1785,0.1704,0,0,0,0,0,0.1451,0.1474,0.1492,0.1516,0.1531,0.1556,0.1576,0.1596,0.1624,0.1644,0.1672,0.1706,0.1736,0.1759,0.1785,0.1823,0.1831,0.1851,0.1856,0.1861,0.1861,0.1896,0.1904,0.1817,0.1817,0.1817,0,0,0.1459,0.1476,0.149,0.152,0.1543,0.1564,0.1572,0.1611,0.1636,0.1646,0.1703,0.1729,0.1752,0.1796,0.1822,0.1809,0.1892,0.1865,0.1868,0.1866,0.19,0.1909,0.1916,0.1819,0.1819,0.1819,0,0,0.1474,0.1502,0.1523,0.1544,0.1583,0.1595,0.1613,0.1646,0.1674,0.172,0.1737,0.178,0.1829,0.1846,0.186,0.191,0.192,0.193,0.195,0.1985,0.1992,0.1998,0.2024,0.2033,0.193,0.193,0.193,0,0.1486,0.1511,0.1534,0.1557,0.1579,0.1611,0.1635,0.1663,0.171,0.1733,0.1748,0.1825,0.1849,0.1891,0.1912,0.1922,0.1943,0.1922,0.1991,0.1997,0.2003,0.2028,0.2037,0.1932,0.1932,0.1932,0.1931,0,0.1504,0.1537,0.1554,0.1591,0.1616,0.1647,0.1678,0.1717,0.1756,0.1779,0.1845,0.1875,0.1918,0.1937,0.1943,0.1999,0.2,0.1993,0.1971,0.2013,0.2037,0.2046,0.1935,0.1934,0.1933,0.1933,0,0,0.1489,0.1554,0.1563,0.1586,0.1639,0.1654,0.1705,0.1747,0.1781,0.1837,0.1879,0.1938,0.1961,0.1979,0.1996,0.2027,0.2091,0.2034,0.2035,0.2053,0.2173,0.2036,0.2032,0.2102,0.2104,0.2105,0.2175,0,0.1499,0.1544,0.1576,0.1621,0.1643,0.1689,0.1726,0.1772,0.1818,0.1867,0.1912,0.1964,0.1975,0.2007,0.2041,0.208,0.2115,0.2073,0.2135,0.2136,0.2003,0.2037,0.211,0.2181,0.2183,0.2184,0.2185,0,0.1496,0.1529,0.1575,0.1632,0.1647,0.1682,0.1744,0.1785,0.1855,0.1894,0.1951,0.1987,0.205,0.2051,0.2138,0.2115,0.2152,0.2175,0.2179,0.2042,0.2014,0.213,0.2201,0.22,0.2198,0.2197,0.2196,0,0.1453,0.1521,0.1559,0.158,0.1651,0.1687,0.1731,0.1799,0.1839,0.192,0.1956,0.2026,0.2074,0.213,0.2189,0.2177,0.2274,0.2258,0.2168,0.216,0.2249,0.2242,0.2322,0.2322,0.2321,0.2321,0.2321,0,0.1428,0.146,0.1549,0.1567,0.1613,0.1673,0.1729,0.1781,0.1859,0.1899,0.1973,0.2007,0.2101,0.2162,0.2205,0.2207,0.2293,0.2172,0.2166,0.2262,0.2255,0.2256,0.2247,0.2324,0.2323,0.2323,0.2322,0,0.1366,0.1429,0.1475,0.1563,0.1595,0.1629,0.1727,0.1759,0.1845,0.19,0.1931,0.202,0.2085,0.2161,0.2251,0.2211,0.224,0.2226,0.233,0.2328,0.2099,0.2092,0.2114,0.211,0.2106,0.2103,0.21,0,0.1333,0.1355,0.1459,0.1489,0.1536,0.1603,0.1641,0.1742,0.1772,0.1889,0.1898,0.1995,0.2042,0.2052,0.2145,0.2199,0.2187,0.2184,0.2126,0.2085,0.2078,0.2076,0.2074,0.2095,0.2094,0.2093,0.2092,0,0.1268,0.1322,0.1363,0.1429,0.1482,0.1522,0.1589,0.16,0.1704,0.1801,0.182,0.1854,0.1913,0.1966,0.2019,0.2061,0.2168,0.2145,0.2152,0.2098,0.2062,0.2058,0.206,0.2079,0.2081,0.2082,0.2083,0,0.1224,0.1238,0.1307,0.135,0.1412,0.1419,0.1465,0.1498,0.1544,0.167,0.1679,0.1785,0.1887,0.1897,0.1954,0.1968,0.1943,0.1887,0.1907,0.1922,0.1827,0.1751,0.1666,0,0,0,0,0,0.1167,0.1177,0.1218,0.1257,0.1313,0.1346,0.1416,0.1462,0.1563,0.1535,0.1602,0.1651,0.1702,0.1764,0.1744,0.1881,0.1958,0.185,0.1905,0.2008,0.2023,0.1929,0,0,0,0,0,0,0.1131,0.117,0.1185,0.117,0.1179,0.1221,0.1259,0.1328,0.1315,0.1429,0.1465,0.1561,0.1638,0.1702,0.1716,0.1737,0.1741,0.1929,0.1925,0.2,0.2013,0.2025,0.1933,0,0,0,0,0]},{"header":{"parameterUnit":"m.s-1","parameterCategory":2,"la1":30.2991,"la2":30.254,"lo1":-89.0895,"lo2":-89.0444,"dy":0.0017,"dx":0.0017,"nx":28,"ny":28,"refTime":"2024-05-14T03:00:00:Z","depth":"4","parameterNumber":3,"parameterNumberName":"V-component_of_CURRENTS"},"data":[0,0,0,0,0,0,0,0,0,0,0,0,0,0,0,0,0,0,0,0,0,0,0,0,0,0,0,0,0,0,0,0,0,0,0,0,0,0,0,0,0,0,0,0,0,0,0,0,0,0,0,0,0,0,0,0,0,0,0.0077,0.0077,0,0.0047,0.0046,0.0046,0.0036,0.0036,0.0036,0.0036,0.0,-0.0001,-0.0002,0,0,0,0,0,0,0,0,0,0,0,0,0,0.0096,0.0096,0.0077,0.0077,0.0076,0.0047,0.0046,0.0046,0.0036,0.0036,0.0036,0.0036,0.0001,-0.0001,-0.0002,0,0,0,0,0,0,0,0,0,0,0,0,0,0.0079,0.0095,0.0077,0.0068,0.0067,0.0047,0.0046,0.0046,0.0036,0.0036,0.0036,0.0036,0.0001,-0.0001,-0.0002,-0.0016,0,0,-0.0007,-0.0008,0,0,0,0,0,0,0,0,0.008,0.0078,0.0069,0.0068,0.0067,0.0045,0.004,0.0025,0.0036,0.0047,0.0036,0.0036,0.0015,0.0012,0.0006,-0.0018,-0.0019,-0.0007,-0.0008,-0.0009,-0.0009,0,0,0,0,0,0,0,0.0081,0.0079,0.0065,0.0069,0.0068,0.0055,0.0053,0.0037,0.003,0.0046,0.0045,0.0042,0.0014,0.0007,0.0005,-0.002,-0.0007,-0.0009,-0.001,-0.001,-0.0039,-0.0039,0,0,0,0,0,0,0.0086,0.008,0.0066,0.0064,0.0074,0.0054,0.0052,0.0052,0.003,0.0027,0.0042,0.0042,0.001,0.0007,0.0004,0.0008,-0.0009,-0.001,-0.0011,-0.0039,-0.0039,-0.0039,0,0,0,0,0,0,0.0087,0.0085,0.0067,0.0071,0.0068,0.0054,0.0054,0.0051,0.0045,0.0027,0.0024,0.0039,0.001,0.0006,-0.0007,0.0005,-0.0011,-0.0013,-0.004,-0.0039,-0.0039,0.0002,0,0,0,0,0,0,0.0088,0.0086,0.0086,0.0072,0.0068,0.0057,0.0053,0.005,0.0043,0.0042,0.0023,0.002,0.001,-0.0005,-0.0009,0.0003,-0.0014,-0.004,-0.004,-0.0039,-0.0,0.0003,0.0006,0,0,0,0,0,0.0088,0.0089,0.0087,0.0085,0.007,0.0057,0.0054,0.0044,0.0043,0.0039,0.0029,0.0021,-0.0005,-0.0006,-0.0011,0.0001,-0.004,-0.004,-0.0039,-0.0001,0.0003,0.0006,0,0,0,0,0,0,0.0096,0.0087,0.0085,0.0082,0.0072,0.0055,0.0051,0.0044,0.0033,0.0034,0.0018,0.0014,0.0009,-0.0005,-0.0005,-0.0007,-0.0022,-0.0023,0.0008,0.0012,0.0015,0.0029,-0.0015,0,0,0,0,0,0.0098,0.0097,0.0085,0.0083,0.0079,0.0065,0.0058,0.0052,0.004,0.0036,0.0023,0.0012,0.0007,0.0002,-0.001,-0.0016,-0.0031,-0.0011,-0.0008,-0.0005,0.0003,-0.0004,-0.0,-0.0038,-0.0038,-0.0038,0,0,0.01,0.0095,0.0094,0.0085,0.0076,0.0076,0.0062,0.0053,0.0057,0.0033,0.0032,0.0019,0.0006,0.0005,0.0002,-0.0004,-0.0006,-0.0004,-0.0002,0.0005,-0.0003,0.0001,0.0004,-0.0037,-0.0037,-0.0037,0,0,0.0105,0.01,0.0102,0.0095,0.0085,0.008,0.0079,0.0063,0.0061,0.0053,0.0045,0.0041,0.0021,0.0024,0.0022,0.0032,0.0009,0.0025,0.0054,0.0048,0.0051,0.0054,0.0024,0.0024,0.0029,0.0029,0.0029,0,0.0108,0.0111,0.0099,0.0099,0.0101,0.0085,0.0091,0.0085,0.0068,0.0074,0.0058,0.005,0.0035,0.0052,0.0056,0.0041,0.0023,0.0044,0.0053,0.0055,0.0057,0.0026,0.0026,0.0031,0.0031,0.003,0.003,0,0.0114,0.0118,0.0118,0.0121,0.0119,0.0119,0.0114,0.0113,0.0108,0.0105,0.011,0.0091,0.0091,0.0085,0.0072,0.0087,0.0062,0.0057,0.0046,0.0064,0.0029,0.0028,0.0034,0.0033,0.0032,0.0032,0,0,0.0122,0.0124,0.0125,0.0136,0.0133,0.0135,0.0145,0.0155,0.0173,0.0153,0.0174,0.0161,0.0152,0.0149,0.0135,0.0128,0.0118,0.01,0.0098,0.0075,0.0084,0.0067,0.0063,0.0113,0.0113,0.0114,0.0048,0,0.0134,0.0148,0.0146,0.0166,0.0177,0.0174,0.0191,0.0197,0.0197,0.021,0.02,0.0208,0.0177,0.018,0.0169,0.0138,0.0118,0.0135,0.0066,0.0064,0.0052,0.0063,0.0115,0.0047,0.0046,0.0046,0.0046,0,0.0145,0.0156,0.0178,0.0204,0.021,0.0221,0.0253,0.0263,0.0277,0.0277,0.0282,0.0269,0.0266,0.0232,0.0186,0.0196,0.0142,0.0108,0.0104,0.0078,0.0046,0.0028,0.0043,0.0043,0.0044,0.0044,0.0044,0,0.0166,0.0183,0.0206,0.0211,0.0234,0.0251,0.0266,0.0285,0.031,0.032,0.0335,0.0324,0.032,0.0267,0.0195,0.0189,0.0133,0.0115,0.0044,0.004,0.0057,0.0054,0.0073,0.0073,0.0073,0.0073,0.0073,0,0.0184,0.0203,0.0218,0.0231,0.0272,0.0276,0.0321,0.0332,0.0361,0.0397,0.0371,0.039,0.0328,0.029,0.0214,0.0129,0.0144,0.0052,0.0031,0.0071,0.0072,0.0054,0.0053,0.0071,0.0071,0.0072,0.0072,0,0.02,0.0208,0.0239,0.0268,0.0282,0.0309,0.0358,0.0392,0.0406,0.0451,0.0458,0.0444,0.0392,0.0317,0.0229,0.0155,0.0074,0.0033,0.0074,0.0056,-0.0026,-0.0024,-0.0052,-0.0053,-0.0054,-0.0055,-0.0055,0,0.021,0.0226,0.0266,0.0292,0.0306,0.0347,0.0384,0.0414,0.0449,0.0483,0.0507,0.0477,0.0452,0.032,0.0228,0.0083,0.0055,-0.0005,-0.0009,-0.0017,-0.0035,-0.0032,-0.003,-0.0057,-0.0057,-0.0057,-0.0057,0,0.0231,0.0243,0.0269,0.0321,0.0361,0.041,0.0458,0.0491,0.0527,0.0541,0.0554,0.0493,0.0431,0.0326,0.0214,0.0108,0.0031,-0.0015,-0.0014,-0.0018,-0.0023,-0.0039,-0.0036,-0.006,-0.006,-0.0059,-0.0059,0,0.0248,0.0269,0.0302,0.0348,0.0403,0.0457,0.0482,0.0522,0.0558,0.0589,0.059,0.0525,0.0491,0.0337,0.0238,0.0135,0.0096,0.0041,0.0038,0.004,0.0086,0.0095,0.0081,0,0,0,0,0,0.0261,0.0285,0.0329,0.0382,0.0436,0.0465,0.0528,0.0548,0.0582,0.0597,0.0597,0.054,0.0402,0.0346,0.024,0.0204,0.0067,0.0072,0.0,-0.0076,-0.0072,-0.0035,0,0,0,0,0,0,0.0271,0.031,0.0328,0.0397,0.0437,0.0499,0.0539,0.0564,0.057,0.0589,0.0525,0.0491,0.0364,0.0467,0.0234,0.0202,0.0134,0.0011,0.0008,-0.0077,-0.0075,-0.0072,-0.0032,0,0,0,0,0]}]]